Flag Weather past 2 weeks in Swanage, England, United Kingdom

Now
36 °F

Fog.


Feels Like: 32 °F
Forecast: N/A
Wind: 5 mph from North

Location: Bournemouth Airport

Current Time: Nov 24, 2014 at 6:17:55 PM

Latest Report: Nov 24, 2014 at 5:50 PM


Visibility: N/A

Pressure: 30.33 "Hg

Humidity: 100%

Dew point: 36 °F

Location of SwanageLocation

Historic Weather in Swanage — Graph

°F

Swanage temperature yesterday

Maximum temperature yesterday: 50 °F (at 4:20 AM)
Minimum temperature yesterday: 36 °F (at 10:20 PM)
Average temperature yesterday: 45 °F

Past Weeks' High & Low Weather Summary

 TemperatureHumidityPressure
High59 °F (Nov 13, 1:50 PM)100% (Nov 10, 4:50 AM)30.33 "Hg (Nov 10, 4:50 AM)
Low28 °F (Nov 24, 4:20 AM)67% (Nov 14, 11:50 AM)29.24 "Hg (Nov 12, 1:20 AM)
Average50 °F90%29.71 "Hg
* Reported Nov 9 5:20 PM — Nov 24 5:20 PM, Swanage, Weather by CustomWeather, © 2014

Note: Actual official high and low records may vary slightly from our data, if they occured in-between our weather recording intervals... More about our weather records

Advertising

Swanage weather history for previous 24 hours

 ConditionsComfort  
Time TempWeatherWind HumidityBarometerVisibility
5:20 PM
Nov 24
37 °FFog.2 mph93%30.33 "HgN/A
4:50 PM39 °FClear.3 mph87%30.30 "Hg10 mi
4:20 PM43 °FClear.6 mph81%30.30 "Hg10 mi
3:50 PM43 °FSunny.6 mph81%30.30 "Hg10 mi
3:20 PM46 °FPassing clouds.5 mph76%30.30 "HgN/A
2:50 PM46 °FPassing clouds.7 mph76%30.30 "HgN/A
2:20 PM46 °FPassing clouds.7 mph76%30.30 "HgN/A
1:50 PM46 °FPassing clouds.6 mph82%30.33 "HgN/A
1:20 PM46 °FSunny.5 mph82%30.33 "Hg10 mi
12:50 PM45 °FSunny.3 mph93%30.33 "Hg10 mi
12:20 PM45 °FSunny.1 mph93%30.33 "Hg10 mi
11:50 AM43 °FSunny.2 mph100%30.33 "Hg10 mi
11:20 AM41 °FSunny.3 mph100%30.33 "Hg10 mi
10:50 AM39 °FSunny.3 mph100%30.33 "Hg10 mi
10:20 AM36 °FSunny.3 mph93%30.33 "Hg10 mi
9:50 AM34 °FPassing clouds.5 mph100%30.33 "HgN/A
9:20 AM32 °FSunny.3 mph93%30.33 "Hg10 mi
8:50 AM32 °FClear.2 mph100%30.33 "Hg5 mi
8:20 AM30 °FClear.3 mph100%30.33 "HgN/A
7:50 AM28 °FSleet. Light fog.3 mph100%30.30 "HgN/A
7:20 AM30 °FSleet. Light fog.2 mph100%30.30 "HgN/A
6:50 AM30 °FFog.3 mph100%30.30 "HgN/A
6:20 AM30 °FIce fog.2 mph100%30.27 "Hg0 mi
5:50 AM28 °FFog.2 mph100%30.27 "Hg1 mi
5:20 AM28 °FFog.2 mph100%30.27 "Hg1 mi
4:50 AM30 °FIce fog.2 mph100%30.24 "Hg1 mi
4:20 AM28 °FIce fog.2 mph100%30.24 "Hg1 mi
3:50 AM30 °FIce fog.2 mph100%30.24 "Hg1 mi
11:50 PM
Nov 23
36 °FFog.2 mph93%30.21 "Hg1 mi
11:20 PM36 °FFog.2 mph100%30.21 "Hg1 mi
10:50 PM37 °FFog.3 mph93%30.18 "Hg1 mi
10:20 PM36 °FFog.1 mph100%30.18 "Hg2 mi
9:20 PM37 °FLight fog.3 mph100%30.15 "Hg1 mi
8:50 PM39 °FClear.3 mph100%30.15 "Hg6 mi
7:20 PM43 °FClear.5 mph93%30.12 "Hg10 mi
6:50 PM43 °FClear.5 mph93%30.12 "Hg10 mi
Weather by CustomWeather, © 2014

See weather overviewHow to use our weather pages